TAP7 LPPT-LPPR

Flight info

Callsign TAP7
Flight time 0h 39m
Altitude 18000
Route IXIDA1N IXIDA DCT ABLEG ABLEG6C
Aircraft A321/M-SDE3FGHIRWY/LB1

Departure

Time 2026-05-04 17:02
Airport Lisbon Humberto Delgado Airport (LPPT)

Arrival

Time 2026-05-04 17:42
Airport Francisco de Sá Carneiro Airport (LPPR)
Time Latitude Longitude Altitude Speed Heading
2026-05-04 16:43 38.77011 -9.13630 357 ft 0 kts 258°
2026-05-04 16:56 38.77018 -9.13583 357 ft 4 kts 259°
2026-05-04 16:56 38.77040 -9.13529 355 ft 0 kts 168°
2026-05-04 16:59 38.76974 -9.13511 346 ft 17 kts 168°
2026-05-04 17:00 38.76636 -9.13597 345 ft 18 kts 259°
2026-05-04 17:00 38.76556 -9.14085 352 ft 19 kts 262°
2026-05-04 17:01 38.76653 -9.14359 335 ft 0 kts 332°
2026-05-04 17:01 38.76999 -9.14200 353 ft 88 kts 23°
2026-05-04 17:02 38.78939 -9.13151 783 ft 187 kts 19°
2026-05-04 17:02 38.81390 -9.11726 2225 ft 202 kts 22°
2026-05-04 17:03 38.82694 -9.10779 2511 ft 227 kts 25°
2026-05-04 17:03 38.84102 -9.09729 2800 ft 247 kts 25°
2026-05-04 17:03 38.87144 -9.07415 4797 ft 259 kts 27°
2026-05-04 17:04 38.90234 -9.04786 6188 ft 274 kts 41°
2026-05-04 17:04 38.93097 -9.01423 7553 ft 283 kts 38°
2026-05-04 17:05 38.96048 -8.97979 8956 ft 290 kts 38°
2026-05-04 17:05 38.99060 -8.94476 10004 ft 297 kts 39°
2026-05-04 17:06 39.02134 -8.90883 10085 ft 306 kts 39°
2026-05-04 17:06 39.03830 -8.89128 10086 ft 322 kts 27°
2026-05-04 17:07 39.08254 -8.87571 10734 ft 339 kts
2026-05-04 17:07 39.09823 -8.87159 11154 ft 341 kts
2026-05-04 17:07 39.12920 -8.86335 11955 ft 347 kts
2026-05-04 17:07 39.15300 -8.85692 12582 ft 350 kts
2026-05-04 17:08 39.17686 -8.85050 13202 ft 353 kts
2026-05-04 17:08 39.22547 -8.83753 14369 ft 360 kts
2026-05-04 17:08 39.24979 -8.83107 14917 ft 363 kts
2026-05-04 17:09 39.27465 -8.82447 15460 ft 366 kts
2026-05-04 17:09 39.29969 -8.81782 15976 ft 369 kts
2026-05-04 17:09 39.32496 -8.81109 16503 ft 372 kts
2026-05-04 17:10 39.37615 -8.79745 17512 ft 379 kts
2026-05-04 17:10 39.45472 -8.77656 18091 ft 398 kts
2026-05-04 17:11 39.48239 -8.76923 18106 ft 411 kts
2026-05-04 17:11 39.51092 -8.76165 18087 ft 424 kts
2026-05-04 17:11 39.56952 -8.74602 18092 ft 435 kts
2026-05-04 17:12 39.59914 -8.73801 18097 ft 436 kts
2026-05-04 17:12 39.65857 -8.72188 18102 ft 436 kts
2026-05-04 17:13 39.74873 -8.69762 18110 ft 445 kts
2026-05-04 17:14 39.83992 -8.67297 18106 ft 446 kts
2026-05-04 17:14 39.87038 -8.66477 18105 ft 446 kts
2026-05-04 17:14 39.93079 -8.64839 18123 ft 446 kts
2026-05-04 17:15 39.96117 -8.64013 18107 ft 445 kts
2026-05-04 17:15 40.02180 -8.62369 18084 ft 444 kts
2026-05-04 17:16 40.08224 -8.60727 18075 ft 444 kts
2026-05-04 17:16 40.17308 -8.58246 18093 ft 445 kts
2026-05-04 17:17 40.20345 -8.57415 18110 ft 445 kts
2026-05-04 17:17 40.29430 -8.54926 18099 ft 444 kts
2026-05-04 17:18 40.32448 -8.54096 18098 ft 444 kts
2026-05-04 17:18 40.38454 -8.52446 18096 ft 444 kts
2026-05-04 17:19 40.44505 -8.50784 18099 ft 443 kts
2026-05-04 17:19 40.50554 -8.49125 18090 ft 443 kts
2026-05-04 17:20 40.56605 -8.47456 18085 ft 443 kts
2026-05-04 17:20 40.62367 -8.45864 18113 ft 444 kts
2026-05-04 17:21 40.71526 -8.43711 18106 ft 434 kts 352°
2026-05-04 17:21 40.77012 -8.46229 17659 ft 404 kts 329°
2026-05-04 17:22 40.79448 -8.47888 17536 ft 382 kts 328°
2026-05-04 17:22 40.81729 -8.49495 17405 ft 362 kts 328°
2026-05-04 17:23 40.88137 -8.54049 15371 ft 360 kts 328°
2026-05-04 17:23 40.90367 -8.55621 14001 ft 364 kts 329°
2026-05-04 17:23 40.94850 -8.58734 10666 ft 363 kts 330°
2026-05-04 17:24 40.97094 -8.60281 8986 ft 360 kts 330°
2026-05-04 17:24 41.04122 -8.62719 5208 ft 323 kts 347°
2026-05-04 17:25 41.06225 -8.63255 4811 ft 293 kts 346°
2026-05-04 17:25 41.09805 -8.64161 4465 ft 233 kts 346°
2026-05-04 17:26 41.12761 -8.64929 4470 ft 230 kts 346°
2026-05-04 17:26 41.18258 -8.66655 5988 ft 323 kts 331°
2026-05-04 17:27 41.21424 -8.71458 6398 ft 357 kts 294°
2026-05-04 17:27 41.22457 -8.77206 6544 ft 306 kts 266°
2026-05-04 17:28 41.20288 -8.81988 5614 ft 302 kts 215°
2026-05-04 17:29 41.15007 -8.84317 6011 ft 242 kts 199°
2026-05-04 17:29 41.10170 -8.86097 6008 ft 240 kts 199°
2026-05-04 17:30 41.05324 -8.87845 6010 ft 241 kts 199°
2026-05-04 17:31 41.02044 -8.88251 5493 ft 246 kts 161°
2026-05-04 17:31 40.97596 -8.84788 4412 ft 248 kts 146°
2026-05-04 17:32 40.95328 -8.81427 3997 ft 245 kts 128°
2026-05-04 17:33 40.92115 -8.76062 4009 ft 248 kts 127°
2026-05-04 17:33 40.91307 -8.74092 4009 ft 247 kts 103°
2026-05-04 17:34 40.92924 -8.68325 4011 ft 229 kts 40°
2026-05-04 17:34 40.94021 -8.66898 4003 ft 215 kts 40°
2026-05-04 17:35 40.97230 -8.62838 4015 ft 209 kts 29°
2026-05-04 17:35 40.99780 -8.61701 3935 ft 180 kts 358°
2026-05-04 17:35 41.00959 -8.61834 3820 ft 159 kts 345°
2026-05-04 17:36 41.02014 -8.62122 3571 ft 152 kts 344°
2026-05-04 17:36 41.03033 -8.62393 3390 ft 145 kts 344°
2026-05-04 17:36 41.03988 -8.62643 3253 ft 137 kts 344°
2026-05-04 17:36 41.04914 -8.62885 3064 ft 136 kts 344°
2026-05-04 17:37 41.05836 -8.63128 2904 ft 134 kts 342°
2026-05-04 17:37 41.06754 -8.63371 2652 ft 134 kts 343°
2026-05-04 17:37 41.07655 -8.63611 2421 ft 132 kts 342°
2026-05-04 17:37 41.08559 -8.63852 2102 ft 133 kts 344°
2026-05-04 17:38 41.09462 -8.64091 1883 ft 129 kts 344°
2026-05-04 17:38 41.10378 -8.64335 1896 ft 141 kts 344°
2026-05-04 17:38 41.11039 -8.64513 1895 ft 150 kts 343°
2026-05-04 17:38 41.12425 -8.64882 1885 ft 155 kts 344°
2026-05-04 17:39 41.14157 -8.65334 1771 ft 145 kts 343°
2026-05-04 17:39 41.15103 -8.65577 1548 ft 134 kts 343°
2026-05-04 17:39 41.16007 -8.65813 1293 ft 130 kts 345°
2026-05-04 17:40 41.16908 -8.66050 1194 ft 131 kts 342°
2026-05-04 17:40 41.17800 -8.66285 1169 ft 132 kts 346°
2026-05-04 17:40 41.18691 -8.66518 1113 ft 130 kts 345°
2026-05-04 17:40 41.19580 -8.66750 1063 ft 131 kts 348°
2026-05-04 17:41 41.20475 -8.66983 937 ft 130 kts 348°
2026-05-04 17:41 41.21365 -8.67208 774 ft 135 kts 346°
2026-05-04 17:41 41.22273 -8.67447 620 ft 134 kts 346°
2026-05-04 17:41 41.23192 -8.67700 330 ft 136 kts 345°
2026-05-04 17:42 41.24080 -8.67933 224 ft 121 kts 346°
2026-05-04 17:42 41.24502 -8.68051 221 ft 21 kts 349°
2026-05-04 17:42 41.24835 -8.68134 214 ft 50 kts 350°
2026-05-04 17:42 41.25120 -8.68157 197 ft 31 kts 12°
2026-05-04 17:43 41.25247 -8.68114 212 ft 8 kts 20°
2026-05-04 17:43 41.25283 -8.68070 204 ft 8 kts 66°
2026-05-04 17:43 41.25239 -8.68004 207 ft 11 kts 179°
2026-05-04 17:43 41.25091 -8.67969 213 ft 30 kts 168°
2026-05-04 17:44 41.24895 -8.67914 224 ft 27 kts 165°
2026-05-04 17:44 41.24738 -8.67826 228 ft 23 kts 163°
2026-05-04 17:44 41.24557 -8.67773 234 ft 29 kts 169°
2026-05-04 17:44 41.24355 -8.67722 234 ft 29 kts 169°
2026-05-04 17:45 41.24203 -8.67583 235 ft 26 kts 161°
2026-05-04 17:45 41.24033 -8.67531 235 ft 25 kts 168°
2026-05-04 17:45 41.23866 -8.67488 235 ft 24 kts 169°
2026-05-04 17:45 41.23725 -8.67401 237 ft 22 kts 128°
2026-05-04 17:46 41.23612 -8.67330 235 ft 9 kts 183°
2026-05-04 17:46 41.23590 -8.67299 236 ft 11 kts 107°
2026-05-04 17:46 41.23590 -8.67233 235 ft 4 kts 89°
2026-05-04 17:46 41.23590 -8.67219 235 ft 0 kts 91°